Location: Izdebno
(52.6670°N, 16.2170°E)
Time: 02:20:00
(UTC+02:00)

Tiros 1 - Pass Details

Date: 28 February 2024
Orbit: 625 x 657 km, 48.4° (Epoch: 16 April)

Event Time Altitude Azimuth Distance (km) Brightness Sun altitude
Rises 20:56:48 0° 239° (WSW) 2,974 10.9 -30.9°
Reaches altitude 10° 20:59:14 10° 233° (SW) 2,066 9.9 -31.2°
Enters shadow 20:59:28 11° 232° (SW) 1,980 9.8 -31.3°
